map of IIL home
IIL - Airport
Location
City:  Ilam, Ilam, Iran
ICAO:OICI
IATA:IIL

Details
Type:Airport (Aerodrome, Airfield)
Latitude:3335'12"N (33.586606)
Longitude:4624'17"E (46.404842)
Datum:WGS 1984
Elevation:4404 ft (1342 m)
Variation:4.61E (WMM2015 magnetic declination)
0.06 annual change
Runways:1
Longest:9183 × 148 ft (2799 × 45 m), paved

Time
Time Zone:UTC+3:30 (DST+4:30)
Local Time:

Weather
METAR:OICI 130800Z 13004KT 9999 FEW035CB SCT040 SCT090 12/02 Q1025 A3029
TAF:OICI 130530Z 1306/1412 18004MPS 8000 FEW035CB SCT040 BKN090
TEMPO 1309/1312 18008MPS
BECMG 1315/1317 5000 FEW025CB FEW030 BKN070
TEMPO 1321/1403 4000 RA
BECMG 1406/1408 7000 NSC

Related Locations
Nearby:
Farthest:GMR: 11703 mi / 18833 km
Mangareva [Totegegie], Gambier Islands, PF

Find:

   beyond  
but within

Other Information
Maps:
NOTAMs:
Links:
Sources:

  
  • flag of Iran
  

Sectional Chart

Flight Planning
at skyvector.com

Satellite Image

Google Maps Satellite view

 

Copyright © 2004-2018 Karl L. Swartz. All rights reserved.
The Great Circle Mapper name and logo are trademarks of the Great Circle Mapper.
All other trademarks mentioned herein belong to their respective owners.
Please see credits for attibutions and further copyright information.

  Follow gcmap on Facebook Follow gcmap on Twitter Follow gcmap on Google+ GCmap on LinkedIn

hCard Microformat

Geo Microformat